Location: Albuquerque Trailhead
(34.7934°N, 106.3736°W)
Time: 10:51:32
(UTC+00:00)

Exosat Rocket - Pass Details

Date: 01 November 2021
Orbit: 759 x 2516 km, 72.3° (Epoch: 08 December)

Event Time Altitude Azimuth Distance (km) Brightness Sun altitude
Exits shadow 12:06:14 22° 271° (W) 3,394 6.1 -16.9°
Maximum altitude 12:11:28 30° 311° (NW) 3,219 6.2 -15.9°
Drops below altitude 10° 12:22:43 10° 7° (N) 5,054 7.7 -13.6°
Sets 12:27:37 0° 18° (NNE) 6,174 8.3 -12.6°
